Rockwood, MI

8:15 PM EST on February 20, 2017 (GMT -0500)
Grosse Ile Municipal

Weather History for KONZ - December, 2013

Change the Weather History Date:

Monday, December 30, 2013

  Actual Average (KDTW) Record (KDTW)
Temperature  
Mean Temperature 20 °F -  
Max Temperature 24 °F 31 °F 59 °F (1884)
Min Temperature 15 °F 18 °F -10 °F (1880)
Degree Days  
Heating Degree Days 46    
Moisture  
Dew Point 9 °F    
Average Humidity 62    
Maximum Humidity 80    
Minimum Humidity 46    
Precipitation  
Precipitation 0.00 in - - ()
Sea Level Pressure  
Sea Level Pressure 30.15 in    
Wind  
Wind Speed 10 mph (West)    
Max Wind Speed 16 mph    
Max Gust Speed 24 mph    
Visibility 10 miles    
Events Snow    
Averages and records for this station are not official NWS values.
T = Trace of Precipitation, MM = Missing Value Source: NWS Daily Summary

Daily Weather History Graph

Daily Weather History Graph

Search for Another Location

Airport or City:

Trip Planner

Search our weather history database for the weather conditions in past years. The results will help you decide how hot, cold, wet, or windy it might be!

Date:

Astronomy

Dec. 30, 2013 Rise Set
Actual Time 8:00 AM EST 5:10 PM EST
Civil Twilight 7:29 AM EST 5:41 PM EST
Nautical Twilight 6:53 AM EST 6:16 PM EST
Astronomical Twilight 6:19 AM EST 6:50 PM EST
Moon 5:48 AM EST (12/30) 3:42 PM EST (12/30)
Length of Visible Light 10h 12m
Length of Day
9h 09m
Waning Crescent, 5% of the Moon is Illuminated
Dec 30
Waning Crescent
Jan 1
New
Jan 7
First Quarter
Jan 15
Full
Jan 24
Last Quarter

Hourly Weather History & Observations

Time (EST) Temp. Windchill Dew Point Humidity Pressure Visibility Wind Dir Wind Speed Gust Speed Precip Events Conditions
12:14 AM 24.8 °F 14.6 °F 17.6 °F 74% 29.98 in 10.0 mi NNW 10.4 mph - N/A   Overcast
12:34 AM 24.8 °F 12.9 °F 17.6 °F 74% 29.99 in 10.0 mi NW 13.8 mph 19.6 mph N/A   Overcast
12:54 AM 24.8 °F 11.9 °F 17.6 °F 74% 29.99 in 10.0 mi NW 16.1 mph 24.2 mph N/A Snow Light Snow
1:14 AM 24.8 °F 12.4 °F 17.6 °F 74% 30.00 in 10.0 mi NW 15.0 mph 21.9 mph N/A Snow Light Snow
1:34 AM 23.0 °F 9.6 °F 15.8 °F 74% 30.01 in 10.0 mi NW 16.1 mph 21.9 mph N/A   Overcast
1:54 AM 23.0 °F 12.4 °F 15.8 °F 74% 30.02 in 10.0 mi NW 10.4 mph 17.3 mph N/A Snow Light Snow
2:14 AM 23.0 °F 11.7 °F 14.0 °F 68% 30.03 in 10.0 mi NNW 11.5 mph - N/A Snow Light Snow
2:34 AM 21.2 °F 8.9 °F 14.0 °F 74% 30.05 in 10.0 mi NW 12.7 mph 18.4 mph N/A Snow Light Snow
2:55 AM 21.2 °F 8.3 °F 14.0 °F 74% 30.06 in 10.0 mi WNW 13.8 mph - N/A Snow Light Snow
3:14 AM 21.2 °F 9.5 °F 14.0 °F 74% 30.07 in 10.0 mi West 11.5 mph - N/A Snow Light Snow
3:34 AM 21.2 °F 8.3 °F 10.4 °F 63% 30.09 in 10.0 mi West 13.8 mph - N/A   Overcast
3:54 AM 21.2 °F 7.8 °F 10.4 °F 63% 30.10 in 10.0 mi WNW 15.0 mph - N/A   Overcast
4:14 AM 19.4 °F 7.2 °F 8.6 °F 63% 30.10 in 10.0 mi NW 11.5 mph 19.6 mph N/A   Overcast
4:34 AM 19.4 °F 5.0 °F 8.6 °F 63% 30.11 in 10.0 mi WNW 16.1 mph 19.6 mph N/A   Overcast
4:54 AM 19.4 °F 7.2 °F 6.8 °F 58% 30.12 in 10.0 mi West 11.5 mph 18.4 mph N/A   Overcast
5:14 AM 19.4 °F 7.9 °F 6.8 °F 58% 30.12 in 10.0 mi West 10.4 mph 16.1 mph N/A   Overcast
5:34 AM 19.4 °F 6.0 °F 6.8 °F 58% 30.13 in 10.0 mi WNW 13.8 mph 17.3 mph N/A   Overcast
5:54 AM 19.4 °F 8.6 °F 5.0 °F 54% 30.14 in 10.0 mi NW 9.2 mph - N/A   Overcast
6:14 AM 19.4 °F 9.5 °F 5.0 °F 54% 30.15 in 10.0 mi WNW 8.1 mph - N/A   Overcast
6:34 AM 19.4 °F 11.5 °F 6.8 °F 58% 30.15 in 10.0 mi NW 5.8 mph - N/A   Overcast
6:54 AM 19.4 °F 7.9 °F 6.8 °F 58% 30.16 in 10.0 mi NNW 10.4 mph 16.1 mph N/A   Overcast
7:14 AM 19.4 °F 7.9 °F 6.8 °F 58% 30.17 in 10.0 mi NW 10.4 mph - N/A   Overcast
7:34 AM 17.6 °F 6.4 °F 3.2 °F 53% 30.19 in 10.0 mi NW 9.2 mph - N/A   Overcast
7:54 AM 17.6 °F 8.2 °F 1.4 °F 49% 30.18 in 10.0 mi WNW 6.9 mph - N/A   Scattered Clouds
8:14 AM 15.8 °F 6.1 °F 3.2 °F 58% 30.20 in 10.0 mi WNW 6.9 mph - N/A   Clear
8:34 AM 15.8 °F 6.1 °F 3.2 °F 58% 30.21 in 10.0 mi WNW 6.9 mph - N/A   Clear
8:54 AM 17.6 °F 9.3 °F 3.2 °F 53% 30.22 in 10.0 mi WNW 5.8 mph - N/A   Clear
9:14 AM 17.6 °F 5.7 °F 3.2 °F 53% 30.24 in 10.0 mi NW 10.4 mph - N/A   Clear
9:34 AM 17.6 °F 6.4 °F 3.2 °F 53% 30.25 in 10.0 mi WNW 9.2 mph - N/A   Scattered Clouds
9:54 AM 17.6 °F 5.0 °F 3.2 °F 53% 30.25 in 10.0 mi NW 11.5 mph 18.4 mph N/A   Mostly Cloudy
10:14 AM 19.4 °F 7.9 °F 3.2 °F 49% 30.26 in 10.0 mi NW 10.4 mph 18.4 mph N/A   Mostly Cloudy
10:34 AM 19.4 °F 11.5 °F 1.4 °F 46% 30.25 in 10.0 mi North 5.8 mph - N/A   Overcast
10:54 AM 17.6 °F 9.3 °F 1.4 °F 49% 30.25 in 10.0 mi NW 5.8 mph - N/A   Mostly Cloudy
11:14 AM 19.4 °F 11.5 °F 1.4 °F 46% 30.25 in 10.0 mi North 5.8 mph - N/A   Mostly Cloudy
11:34 AM 19.4 °F 9.5 °F 3.2 °F 49% 30.24 in 10.0 mi NW 8.1 mph - N/A   Mostly Cloudy
11:54 AM 19.4 °F 8.6 °F 3.2 °F 49% 30.23 in 10.0 mi NNW 9.2 mph - N/A   Mostly Cloudy
12:14 PM 19.4 °F 10.4 °F 3.2 °F 49% 30.23 in 10.0 mi WNW 6.9 mph - N/A   Mostly Cloudy
12:34 PM 19.4 °F 10.4 °F 3.2 °F 49% 30.22 in 10.0 mi NNW 6.9 mph - N/A   Mostly Cloudy
12:54 PM 19.4 °F - 3.2 °F 49% 30.21 in 10.0 mi Calm Calm - N/A   Mostly Cloudy
1:14 PM 21.2 °F 13.6 °F 3.2 °F 46% 30.21 in 10.0 mi WNW 5.8 mph - N/A   Overcast
1:34 PM 21.2 °F 14.9 °F 3.2 °F 46% 30.20 in 10.0 mi NW 4.6 mph - N/A   Overcast
1:54 PM 21.2 °F 16.4 °F 3.2 °F 46% 30.20 in 10.0 mi WSW 3.5 mph - N/A   Overcast
2:14 PM 21.2 °F - 5.0 °F 50% 30.19 in 10.0 mi Calm Calm - N/A   Overcast
2:34 PM 21.2 °F 16.4 °F 5.0 °F 50% 30.19 in 10.0 mi North 3.5 mph - N/A   Overcast
2:55 PM 21.2 °F 14.9 °F 6.8 °F 54% 30.18 in 10.0 mi WSW 4.6 mph - N/A   Overcast
3:14 PM 21.2 °F 14.9 °F 6.8 °F 54% 30.18 in 10.0 mi WSW 4.6 mph - N/A   Overcast
3:34 PM 21.2 °F 16.4 °F 6.8 °F 54% 30.18 in 10.0 mi West 3.5 mph - N/A   Overcast
3:54 PM 21.2 °F - 6.8 °F 54% 30.19 in 10.0 mi Calm Calm - N/A   Overcast
4:14 PM 21.2 °F 16.4 °F 6.8 °F 54% 30.18 in 10.0 mi West 3.5 mph - N/A   Overcast
4:34 PM 21.2 °F - 8.6 °F 58% 30.17 in 10.0 mi Calm Calm - N/A   Overcast
4:54 PM 21.2 °F - 8.6 °F 58% 30.18 in 10.0 mi Calm Calm - N/A   Overcast
5:14 PM 21.2 °F 14.9 °F 12.2 °F 68% 30.18 in 10.0 mi SE 4.6 mph - N/A   Overcast
5:34 PM 21.2 °F 14.9 °F 12.2 °F 68% 30.17 in 10.0 mi South 4.6 mph - N/A   Overcast
5:54 PM 21.2 °F 11.7 °F 14.0 °F 74% 30.17 in 10.0 mi South 8.1 mph - N/A   Overcast
6:14 PM 21.2 °F 14.9 °F 15.8 °F 80% 30.16 in 10.0 mi SSE 4.6 mph - N/A   Overcast
6:34 PM 21.2 °F 14.9 °F 14.0 °F 74% 30.16 in 10.0 mi SSE 4.6 mph - N/A   Overcast
6:54 PM 21.2 °F 12.6 °F 15.8 °F 80% 30.17 in 10.0 mi SSW 6.9 mph - N/A   Overcast
7:14 PM 21.2 °F 13.6 °F 14.0 °F 74% 30.17 in 10.0 mi South 5.8 mph - N/A   Overcast
7:34 PM 21.2 °F 13.6 °F 12.2 °F 68% 30.17 in 10.0 mi South 5.8 mph - N/A   Overcast
7:54 PM 21.2 °F 10.9 °F 14.0 °F 74% 30.16 in 10.0 mi South 9.2 mph - N/A   Overcast
8:14 PM 21.2 °F 11.7 °F 14.0 °F 74% 30.16 in 10.0 mi South 8.1 mph - N/A   Overcast
8:34 PM 21.2 °F 10.9 °F 14.0 °F 74% 30.15 in 10.0 mi South 9.2 mph - N/A   Overcast
8:54 PM 21.2 °F 10.9 °F 14.0 °F 74% 30.15 in 10.0 mi South 9.2 mph - N/A   Overcast
9:14 PM 21.2 °F 10.9 °F 15.8 °F 80% 30.14 in 10.0 mi South 9.2 mph - N/A Snow Light Snow
9:34 PM 23.0 °F 13.1 °F 15.8 °F 74% 30.14 in 10.0 mi South 9.2 mph - N/A   Overcast
9:54 PM 23.0 °F 14.7 °F 15.8 °F 74% 30.13 in 10.0 mi SSW 6.9 mph - N/A   Overcast
10:14 PM 23.0 °F 14.7 °F 15.8 °F 74% 30.13 in 10.0 mi SW 6.9 mph - N/A   Overcast
10:34 PM 23.0 °F 13.9 °F 15.8 °F 74% 30.12 in 10.0 mi SSW 8.1 mph - N/A   Overcast
10:54 PM 23.0 °F 15.8 °F 15.8 °F 74% 30.11 in 10.0 mi SW 5.8 mph - N/A Snow Light Snow
11:14 PM 23.0 °F 14.7 °F 15.8 °F 74% 30.11 in 10.0 mi SW 6.9 mph - N/A Snow Light Snow
11:34 PM 21.2 °F 13.6 °F 15.8 °F 80% 30.10 in 10.0 mi SW 5.8 mph - N/A   Overcast
11:54 PM 21.2 °F 13.6 °F 15.8 °F 80% 30.09 in 10.0 mi WSW 5.8 mph - N/A   Overcast